Tracking 19572 objects as of 23-Feb-2019
HD Live streaming from Space Station
objects crossing your sky now

OPS 0203 (DMSP 5A F2)

Track OPS 0203 (DMSP 5A F2) now!
10-day predictions
OPS 0203 (DMSP 5A F2) is classified as:


NORAD ID: 4512
Int'l Code: 1970-070A
Perigee: 737.1 km
Apogee: 829.7 km
Inclination: 99.0 °
Period: 100.4 minutes
Semi major axis: 7154 km
RCS: 0.9702 m2 (medium)
Launch date: September 3, 1970
Source: United States (US)
Launch site: AIR FORCE WESTERN TEST RANGE (AFWTR)
aabbcc
Your satellite tracking list
Your tracking list is empty




NASA's NSSDC Master Catalog

Two Line Element Set (TLE):
1  4512U 70070A   19053.48279251 -.00000005 +00000-0 +14721-4 0  9997
2  4512 099.0042 245.0444 0064705 015.5168 344.7979 14.34641234528391
Source of the keplerian elements: AFSPC